EI4HQ Weather Reports


Display with metric or nautical units.
time (UTC)temp
F
wind
direction
speed
MPH
gust
MPH
rain 1hr
in
rain 24hr
in
rain mn
in
humidity
%
barometer
mb
20260906180903 66 235 3.0 7.0 0.00 0.06 0.02 89 1013.0
20260906180003 67 237 4.0 11.0 0.00 0.07 0.02 89 1012.9
20260906175403 67 234 3.0 7.0 0.00 0.07 0.02 89 1012.8
20260906174503 67 215 3.0 9.0 0.00 0.07 0.02 89 1012.7
20260906173603 67 227 4.0 9.0 0.00 0.07 0.02 89 1012.6
20260906172703 67 228 3.0 10.0 0.00 0.07 0.02 89 1012.7
20260906171803 67 232 4.0 10.0 0.00 0.07 0.02 90 1012.7
20260906170903 67 236 5.0 11.0 0.00 0.07 0.02 90 1012.6
20260906170003 67 236 5.0 12.0 0.00 0.07 0.02 90 1012.6
20260906165403 67 231 4.0 12.0 0.00 0.07 0.02 90 1012.7
20260906164503 67 213 4.0 11.0 0.00 0.07 0.02 91 1012.6
20260906163603 67 192 3.0 7.0 0.00 0.07 0.02 91 1012.7
20260906162703 66 189 3.0 6.0 0.01 0.07 0.02 91 1012.8
20260906161803 66 220 3.0 9.0 0.01 0.07 0.02 91 1012.8
20260906160903 66 237 4.0 10.0 0.01 0.07 0.02 91 1012.8
20260906160003 66 239 4.0 12.0 0.01 0.07 0.02 91 1012.9
20260906155403 67 218 3.0 11.0 0.01 0.07 0.02 91 1013.0
20260906154503 66 223 2.0 7.0 0.01 0.07 0.02 92 1013.0
20260906153603 66 234 3.0 9.0 0.01 0.07 0.02 91 1013.0
20260906152703 66 232 5.0 10.0 0.00 0.06 0.02 91 1013.1
20260906151803 66 217 4.0 10.0 0.00 0.06 0.02 91 1013.2
20260906150903 66 199 4.0 9.0 0.00 0.06 0.02 91 1013.2
20260906150003 66 192 6.0 14.0 0.00 0.06 0.02 91 1013.3
20260906145403 66 191 7.0 15.0 0.00 0.06 0.02 91 1013.4
20260906144503 66 187 8.0 17.0 0.00 0.06 0.02 91 1013.3
20260906143603 66 189 7.0 17.0 0.00 0.06 0.02 91 1013.3
20260906142703 66 183 8.0 15.0 0.00 0.06 0.02 90 1013.3
20260906141803 66 187 8.0 16.0 0.00 0.06 0.02 90 1013.4
20260906140903 66 180 9.0 19.0 0.00 0.06 0.02 90 1013.5
20260906140003 66 174 11.0 21.0 0.00 0.06 0.02 91 1013.4
20260906135403 66 177 11.0 21.0 0.00 0.06 0.02 91 1013.5
20260906134503 65 177 10.0 19.0 0.00 0.06 0.02 91 1013.7
20260906133603 65 179 12.0 21.0 0.00 0.06 0.02 91 1013.5
20260906132703 65 179 11.0 19.0 0.00 0.06 0.02 91 1013.6
20260906131803 65 177 10.0 19.0 0.00 0.06 0.02 91 1013.5
20260906130903 65 177 12.0 19.0 0.00 0.06 0.02 90 1013.5
20260906130003 65 176 12.0 21.0 0.00 0.06 0.02 90 1013.6
20260906125403 65 175 12.0 21.0 0.00 0.06 0.02 90 1013.6
20260906124503 65 175 13.0 20.0 0.00 0.06 0.02 90 1013.4
20260906123603 64 174 14.0 20.0 0.00 0.06 0.02 90 1013.4
20260906122703 64 171 13.0 26.0 0.00 0.06 0.02 90 1013.2
20260906121803 64 172 14.0 26.0 0.00 0.06 0.02 91 1013.5
20260906120903 64 173 15.0 23.0 0.00 0.06 0.02 90 1013.7
20260906120003 64 171 14.0 20.0 0.00 0.06 0.02 90 1013.9
20260906115403 64 173 14.0 21.0 0.00 0.06 0.02 90 1013.9
20260906114503 64 170 16.0 23.0 0.00 0.06 0.02 90 1014.0
20260906113603 64 170 14.0 22.0 0.00 0.06 0.02 91 1014.0
20260906112703 64 173 14.0 24.0 0.01 0.06 0.02 91 1014.0
20260906111803 64 174 14.0 23.0 0.01 0.06 0.02 91 1014.3
20260906110903 64 170 15.0 24.0 0.01 0.06 0.02 91 1014.5
20260906110003 63 166 16.0 27.0 0.01 0.06 0.02 91 1014.3
20260906105403 63 165 15.0 24.0 0.01 0.06 0.02 91 1014.3
20260906104503 63 168 16.0 23.0 0.01 0.06 0.02 91 1014.4
20260906103603 63 171 16.0 24.0 0.01 0.06 0.02 91 1014.5
20260906102704 63 171 16.0 24.0 0.00 0.06 0.01 90 1014.5
20260906101803 63 173 16.0 25.0 0.00 0.06 0.01 90 1014.6
20260906100903 63 168 15.0 25.0 0.00 0.06 0.01 89 1014.7
20260906100003 63 170 16.0 23.0 0.00 0.06 0.01 89 1014.8
20260906095403 63 169 15.0 23.0 0.00 0.06 0.01 88 1014.7
20260906094503 64 166 15.0 23.0 0.00 0.06 0.01 88 1014.6
20260906093603 64 164 15.0 22.0 0.00 0.06 0.01 88 1014.7
20260906092703 64 162 15.0 25.0 0.00 0.06 0.01 88 1015.0
20260906091803 63 161 17.0 25.0 0.00 0.06 0.01 88 1015.0
20260906090903 63 164 15.0 24.0 0.00 0.06 0.01 88 1015.0
20260906090003 63 162 15.0 24.0 0.00 0.06 0.01 88 1015.1
20260906085403 63 160 16.0 24.0 0.00 0.06 0.01 88 1015.2
20260906084503 63 161 15.0 26.0 0.00 0.06 0.01 89 1015.3
20260906083603 63 164 13.0 21.0 0.00 0.06 0.01 89 1015.3
20260906082703 63 162 15.0 24.0 0.00 0.06 0.01 89 1015.4
20260906081803 63 161 16.0 28.0 0.00 0.06 0.01 89 1015.4
20260906080903 63 159 17.0 28.0 0.00 0.06 0.01 89 1015.6
20260906080003 63 159 16.0 25.0 0.00 0.06 0.01 89 1015.6
20260906075403 63 157 17.0 24.0 0.00 0.06 0.01 90 1015.6
20260906074503 63 158 16.0 23.0 0.00 0.06 0.01 90 1015.7
20260906073603 63 157 18.0 27.0 0.00 0.06 0.01 89 1015.7
20260906072703 63 160 17.0 25.0 0.00 0.06 0.01 90 1015.9
20260906071803 63 159 17.0 25.0 0.00 0.06 0.01 90 1016.1
20260906070903 63 161 15.0 22.0 0.00 0.06 0.01 90 1016.0
20260906070003 63 159 16.0 23.0 0.00 0.06 0.01 90 1016.0
20260906065403 63 158 16.0 23.0 0.00 0.06 0.01 90 1016.1
20260906064503 63 158 16.0 25.0 0.00 0.06 0.01 90 1016.0
20260906063603 63 159 16.0 25.0 0.00 0.06 0.01 90 1016.0
20260906062703 63 157 15.0 25.0 0.00 0.06 0.01 90 1016.0
20260906061803 63 159 14.0 20.0 0.00 0.06 0.01 90 1016.1
20260906060903 62 166 12.0 19.0 0.00 0.06 0.01 90 1016.3
20260906060003 62 165 14.0 22.0 0.00 0.06 0.01 90 1016.4
20260906055403 62 162 14.0 22.0 0.00 0.06 0.01 90 1016.4
20260906054503 62 164 14.0 22.0 0.00 0.06 0.01 91 1016.5
20260906053603 62 166 12.0 20.0 0.00 0.06 0.01 91 1016.6
20260906052703 62 159 13.0 21.0 0.00 0.06 0.01 91 1016.7
20260906051803 63 161 12.0 19.0 0.00 0.06 0.01 91 1016.7
20260906050903 62 168 12.0 17.0 0.00 0.06 0.01 91 1016.8
20260906050003 62 168 12.0 20.0 0.00 0.06 0.01 91 1016.8
20260906045403 62 168 10.0 20.0 0.00 0.06 0.01 91 1016.9
20260906044503 62 166 11.0 17.0 0.00 0.06 0.01 91 1017.1
20260906043603 63 168 13.0 21.0 0.00 0.06 0.01 91 1017.1
20260906042703 63 172 13.0 22.0 0.00 0.06 0.01 91 1017.1
20260906041803 63 170 13.0 21.0 0.00 0.06 0.01 91 1017.3
20260906040903 63 173 10.0 18.0 0.00 0.06 0.01 92 1017.4
20260906040003 63 173 12.0 18.0 0.00 0.06 0.01 92 1017.6
20260906035403 63 170 12.0 21.0 0.00 0.06 0.01 92 1017.7
20260906034503 63 171 12.0 20.0 0.00 0.06 0.01 92 1017.7
20260906033603 63 171 11.0 20.0 0.00 0.06 0.01 92 1017.8
20260906032703 63 173 11.0 22.0 0.00 0.06 0.01 92 1017.9
20260906031803 63 173 11.0 17.0 0.00 0.06 0.01 92 1018.0
20260906030903 63 166 11.0 19.0 0.00 0.06 0.01 92 1018.0
20260906030003 63 170 11.0 19.0 0.00 0.06 0.01 92 1018.0
20260906025403 63 170 12.0 19.0 0.00 0.06 0.01 92 1018.0
20260906024503 63 168 12.0 19.0 0.00 0.06 0.01 92 1018.0
20260906023603 63 166 12.0 22.0 0.00 0.06 0.01 92 1018.1
20260906022703 63 167 12.0 19.0 0.00 0.06 0.01 92 1018.3
20260906021803 63 169 12.0 17.0 0.00 0.06 0.01 92 1018.4
20260906020903 63 168 12.0 18.0 0.00 0.06 0.01 93 1018.6
20260906020003 63 164 13.0 19.0 0.00 0.06 0.01 93 1018.6
20260906015403 63 168 13.0 20.0 0.00 0.06 0.01 93 1018.7
20260906014503 63 165 12.0 19.0 0.00 0.06 0.01 93 1018.8
20260906013603 62 166 12.0 20.0 0.00 0.06 0.01 93 1018.9
20260906012703 62 165 12.0 18.0 0.00 0.06 0.01 93 1019.0
20260906011803 63 166 12.0 19.0 0.00 0.06 0.01 93 1019.0
20260906010903 63 165 12.0 19.0 0.00 0.06 0.01 93 1019.2
20260906010003 63 168 13.0 21.0 0.00 0.06 0.01 93 1019.4
20260906005403 63 167 14.0 22.0 0.00 0.06 0.01 93 1019.4
20260906004503 63 164 14.0 21.0 0.01 0.06 0.01 93 1019.5
20260906003603 63 169 15.0 23.0 0.01 0.06 0.01 93 1019.7
20260906002703 63 174 14.0 21.0 0.01 0.06 0.01 93 1019.8
20260906001803 63 171 15.0 22.0 0.01 0.06 0.01 93 1019.8
20260906000903 63 173 14.0 22.0 0.01 0.06 0.01 93 1020.0
20260906000003 63 171 14.0 22.0 0.01 0.06 0.01 93 1020.1
20260905235403 63 173 15.0 22.0 0.01 0.06 0.01 93 1020.0
20260905234503 63 175 14.0 21.0 0.00 0.05 0.00 93 1020.2
20260905233603 63 175 14.0 23.0 0.00 0.05 0.00 93 1020.3
20260905232703 63 175 13.0 22.0 0.00 0.05 0.00 93 1020.4
20260905231803 63 173 13.0 23.0 0.00 0.05 0.00 93 1020.4
20260905230903 63 174 12.0 19.0 0.00 0.05 0.00 93 1020.5
20260905230003 63 172 10.0 18.0 0.00 0.05 0.00 93 1020.7
20260905225403 63 174 9.0 18.0 0.00 0.05 0.05 93 1020.8
20260905224503 63 175 9.0 15.0 0.01 0.05 0.05 93 1020.9
20260905223603 63 175 9.0 14.0 0.01 0.05 0.05 93 1020.9
20260905222703 63 174 9.0 14.0 0.01 0.05 0.05 93 1020.9
20260905221803 63 174 10.0 16.0 0.01 0.05 0.05 93 1021.0
20260905220903 63 172 10.0 15.0 0.01 0.05 0.05 93 1020.9
20260905220003 62 170 9.0 15.0 0.02 0.05 0.05 93 1021.0
20260905215403 62 170 9.0 15.0 0.02 0.05 0.05 93 1021.0
20260905214503 62 172 8.0 14.0 0.01 0.04 0.04 93 1021.1
20260905213603 62 168 9.0 14.0 0.02 0.04 0.04 93 1021.2
20260905212703 62 169 9.0 13.0 0.02 0.04 0.04 93 1021.3
20260905211803 62 165 9.0 14.0 0.02 0.04 0.04 93 1021.4
20260905210903 62 166 9.0 14.0 0.02 0.04 0.04 93 1021.4
20260905210003 62 167 8.0 14.0 0.02 0.03 0.03 93 1021.5
20260905205403 62 164 9.0 15.0 0.02 0.03 0.03 93 1021.5
20260905204503 62 165 9.0 16.0 0.02 0.03 0.03 93 1021.7
20260905203603 62 165 10.0 16.0 0.01 0.02 0.02 93 1021.6
20260905202703 62 163 10.0 16.0 0.01 0.02 0.02 93 1021.6
20260905201803 62 163 11.0 15.0 0.01 0.02 0.02 93 1021.6
20260905200903 62 163 11.0 19.0 0.01 0.02 0.02 93 1021.6
20260905200003 62 167 12.0 20.0 0.00 0.02 0.02 93 1021.6
20260905195403 62 167 12.0 17.0 0.01 0.02 0.02 92 1021.5
20260905194503 62 164 11.0 18.0 0.01 0.02 0.02 92 1021.6
20260905193603 62 161 11.0 18.0 0.01 0.02 0.02 92 1021.6
20260905192703 62 160 11.0 18.0 0.01 0.02 0.02 92 1021.6
20260905191803 61 161 11.0 17.0 0.01 0.02 0.02 92 1021.6
20260905190903 61 161 12.0 18.0 0.01 0.02 0.02 92 1021.6
20260905190003 61 165 10.0 16.0 0.02 0.02 0.02 92 1021.7
20260905185403 61 162 11.0 18.0 0.01 0.01 0.01 92 1021.7
20260905184503 61 159 12.0 18.0 0.01 0.01 0.01 92 1021.7
20260905183603 61 159 12.0 18.0 0.01 0.01 0.01 92 1021.8
20260905182703 61 156 12.0 19.0 0.01 0.01 0.01 92 1021.8
20260905181803 60 157 12.0 17.0 0.01 0.01 0.01 92 1021.9